Location: Freemans Gardens
(41.6414°N, 83.6077°W)
Time: 03:19:54
(UTC+00:00)

Cosmos 2369 - Pass Details

Date: 29 October 2020
Orbit: 840 x 854 km, 71.0° (Epoch: 26 November)

Event Time Altitude Azimuth Distance (km) Brightness Sun altitude
Rises 23:30:24 0° 185° (S) 3,407 7.0 -11.4°
Reaches altitude 10° 23:32:55 10° 180° (S) 2,474 6.2 -11.9°
Maximum altitude 23:38:20 48° 107° (ESE) 1,109 3.9 -12.9°
Drops below altitude 10° 23:43:47 10° 35° (NE) 2,483 5.8 -13.9°
Enters shadow 23:45:10 - 32° (NNE) 2,996 6.2 -14.2°
